• în Republica Moldova
  • Lista ţărilor
  • Pe 7 zile
  • Temperatura apei
  • Hartă satelitară
  • Meteo pe hartă
  • Widget-uri
  • user-avatar
    Intrare

    Meteo pe oră la Vlorë

    Astăzi, 16 August, Joi

    Timp Temperatura Precipitaţii Vânt Presiune Umiditate
    00:00 +26°C° 0 mm 1 m/s 758 mmHg 69%
    01:00 +25°C° 0 mm 1 m/s 758 mmHg 68%
    02:00 +25°C° 0,1 mm 1 m/s 758 mmHg 69%
    03:00 +25°C° 0,1 mm 2 m/s 758 mmHg 70%
    04:00 +24°C° 0,1 mm 2 m/s 758 mmHg 71%
    05:00 +25°C° 0 mm 2 m/s 758 mmHg 67%
    06:00 +26°C° 0 mm 2 m/s 758 mmHg 63%
    07:00 +27°C° 0 mm 2 m/s 758 mmHg 59%
    08:00 +29°C° 0 mm 2 m/s 758 mmHg 54%
    09:00 +31°C° 0 mm 1 m/s 758 mmHg 48%
    10:00 +32°C° 0 mm 1 m/s 758 mmHg 42%
    11:00 +32°C° 0 mm 1 m/s 758 mmHg 42%
    12:00 +34°C° 0 mm 2 m/s 758 mmHg 41%
    13:00 +34°C° 0 mm 2 m/s 758 mmHg 41%
    14:00 +32°C° 0 mm 2 m/s 758 mmHg 42%
    15:00 +32°C° 0 mm 2 m/s 758 mmHg 43%
    16:00 +32°C° 0 mm 2 m/s 758 mmHg 44%
    17:00 +31°C° 0 mm 2 m/s 758 mmHg 48%
    18:00 +29°C° 0 mm 3 m/s 758 mmHg 52%
    19:00 +28°C° 0 mm 3 m/s 758 mmHg 56%
    20:00 +27°C° 0 mm 3 m/s 758 mmHg 57%
    21:00 +27°C° 0 mm 3 m/s 759 mmHg 58%
    22:00 +26°C° 0 mm 3 m/s 759 mmHg 60%
    23:00 +26°C° 0 mm 3 m/s 759 mmHg 60%

    Mâine, 17 August, Vineri

    Timp Temperatura Precipitaţii Vânt Presiune Umiditate
    00:00 +26°C° 0 mm 2 m/s 759 mmHg 60%
    01:00 +25°C° 0 mm 2 m/s 759 mmHg 60%
    02:00 +25°C° 0 mm 2 m/s 759 mmHg 60%
    03:00 +25°C° 0 mm 2 m/s 759 mmHg 60%
    04:00 +25°C° 0 mm 2 m/s 759 mmHg 60%
    05:00 +26°C° 0 mm 2 m/s 759 mmHg 57%
    06:00 +27°C° 0 mm 2 m/s 759 mmHg 54%
    07:00 +28°C° 0 mm 2 m/s 759 mmHg 51%
    08:00 +30°C° 0 mm 2 m/s 759 mmHg 47%
    09:00 +31°C° 0 mm 2 m/s 759 mmHg 43%
    10:00 +34°C° 0 mm 2 m/s 759 mmHg 38%
    11:00 +35°C° 0 mm 3 m/s 759 mmHg 38%
    12:00 +35°C° 0 mm 3 m/s 759 mmHg 37%
    13:00 +35°C° 0 mm 3 m/s 759 mmHg 36%
    14:00 +35°C° 0 mm 3 m/s 759 mmHg 38%
    15:00 +34°C° 0 mm 3 m/s 759 mmHg 41%
    16:00 +34°C° 0 mm 3 m/s 758 mmHg 43%
    17:00 +31°C° 0 mm 3 m/s 758 mmHg 48%
    18:00 +30°C° 0 mm 2 m/s 759 mmHg 53%
    19:00 +28°C° 0 mm 2 m/s 759 mmHg 58%
    20:00 +28°C° 0 mm 2 m/s 759 mmHg 60%
    21:00 +27°C° 0 mm 2 m/s 759 mmHg 62%
    22:00 +27°C° 0 mm 1 m/s 760 mmHg 64%
    23:00 +26°C° 0 mm 1 m/s 759 mmHg 64%

    Poimâine, 18 August, Sâmbătă

    Timp Temperatura Precipitaţii Vânt Presiune Umiditate
    00:00 +26°C° 0 mm 2 m/s 759 mmHg 64%
    01:00 +26°C° 0 mm 2 m/s 759 mmHg 64%
    02:00 +26°C° 0 mm 2 m/s 759 mmHg 64%
    03:00 +25°C° 0 mm 2 m/s 759 mmHg 64%
    04:00 +25°C° 0 mm 2 m/s 759 mmHg 65%
    05:00 +26°C° 0 mm 3 m/s 759 mmHg 61%
    06:00 +27°C° 0 mm 3 m/s 759 mmHg 58%
    07:00 +29°C° 0 mm 3 m/s 759 mmHg 55%
    08:00 +30°C° 0 mm 3 m/s 759 mmHg 49%
    09:00 +33°C° 0 mm 3 m/s 759 mmHg 44%
    10:00 +35°C° 0 mm 3 m/s 759 mmHg 39%
    11:00 +36°C° 0 mm 3 m/s 759 mmHg 38%
    12:00 +36°C° 0 mm 4 m/s 759 mmHg 37%
    13:00 +36°C° 0 mm 4 m/s 759 mmHg 36%
    14:00 +36°C° 0 mm 5 m/s 759 mmHg 40%
    15:00 +35°C° 0 mm 5 m/s 759 mmHg 44%
    16:00 +34°C° 0 mm 5 m/s 759 mmHg 48%
    17:00 +33°C° 0 mm 5 m/s 759 mmHg 53%
    18:00 +30°C° 0 mm 4 m/s 759 mmHg 59%
    19:00 +29°C° 0 mm 4 m/s 759 mmHg 64%
    20:00 +29°C° 0,2 mm 4 m/s 760 mmHg 67%
    21:00 +28°C° 0,2 mm 4 m/s 760 mmHg 69%
    22:00 +28°C° 0,2 mm 4 m/s 760 mmHg 71%
    23:00 +27°C° 0 mm 4 m/s 760 mmHg 70%

    19 August, Duminică

    Timp Temperatura Precipitaţii Vânt Presiune Umiditate
    00:00 +27°C° 0 mm 3 m/s 760 mmHg 68%
    01:00 +27°C° 0 mm 3 m/s 760 mmHg 67%
    02:00 +27°C° 0 mm 3 m/s 760 mmHg 67%
    03:00 +27°C° 0 mm 4 m/s 760 mmHg 66%
    04:00 +26°C° 0 mm 4 m/s 759 mmHg 66%
    05:00 +27°C° 0,1 mm 4 m/s 760 mmHg 62%
    06:00 +28°C° 0,1 mm 4 m/s 760 mmHg 59%
    07:00 +29°C° 0,1 mm 4 m/s 760 mmHg 56%
    08:00 +31°C° 0 mm 3 m/s 760 mmHg 49%
    09:00 +34°C° 0 mm 3 m/s 760 mmHg 43%
    10:00 +36°C° 0 mm 3 m/s 760 mmHg 36%
    11:00 +36°C° 0 mm 3 m/s 760 mmHg 36%
    12:00 +36°C° 0 mm 4 m/s 760 mmHg 36%
    13:00 +36°C° 0 mm 5 m/s 759 mmHg 35%
    14:00 +35°C° 0 mm 5 m/s 759 mmHg 41%
    15:00 +34°C° 0 mm 5 m/s 759 mmHg 46%
    16:00 +32°C° 0 mm 5 m/s 759 mmHg 51%
    17:00 +32°C° 0 mm 4 m/s 759 mmHg 53%
    18:00 +30°C° 0 mm 4 m/s 759 mmHg 54%
    19:00 +30°C° 0 mm 4 m/s 759 mmHg 55%
    20:00 +29°C° 0 mm 4 m/s 759 mmHg 56%
    21:00 +28°C° 0 mm 3 m/s 760 mmHg 57%
    22:00 +28°C° 0 mm 3 m/s 760 mmHg 58%
    23:00 +28°C° 0 mm 3 m/s 760 mmHg 57%

    20 August, Luni

    Timp Temperatura Precipitaţii Vânt Presiune Umiditate
    00:00 +27°C° 0 mm 3 m/s 759 mmHg 56%
    01:00 +27°C° 0 mm 3 m/s 759 mmHg 55%
    02:00 +27°C° 0 mm 3 m/s 759 mmHg 55%
    03:00 +27°C° 0 mm 3 m/s 759 mmHg 54%
    04:00 +26°C° 0 mm 4 m/s 759 mmHg 54%
    05:00 +27°C° 0 mm 3 m/s 759 mmHg 52%
    06:00 +28°C° 0 mm 3 m/s 759 mmHg 51%
    07:00 +29°C° 0 mm 3 m/s 759 mmHg 49%
    08:00 +31°C° 0 mm 2 m/s 759 mmHg 43%
    09:00 +34°C° 0 mm 2 m/s 760 mmHg 37%
    10:00 +35°C° 0 mm 1 m/s 760 mmHg 31%
    11:00 +37°C° 0 mm 2 m/s 759 mmHg 30%
    12:00 +37°C° 0 mm 2 m/s 759 mmHg 29%
    13:00 +38°C° 0 mm 3 m/s 759 mmHg 28%
    14:00 +36°C° 0 mm 3 m/s 759 mmHg 33%
    15:00 +35°C° 0 mm 3 m/s 759 mmHg 38%
    16:00 +34°C° 0 mm 3 m/s 758 mmHg 42%
    17:00 +33°C° 0 mm 3 m/s 759 mmHg 45%
    18:00 +31°C° 0 mm 3 m/s 759 mmHg 47%
    19:00 +30°C° 0 mm 3 m/s 759 mmHg 50%
    20:00 +29°C° 0 mm 3 m/s 759 mmHg 50%
    21:00 +29°C° 0 mm 3 m/s 759 mmHg 51%
    22:00 +28°C° 0 mm 3 m/s 760 mmHg 52%
    23:00 +28°C° 0 mm 3 m/s 760 mmHg 50%

    21 August, Marţi

    Timp Temperatura Precipitaţii Vânt Presiune Umiditate
    00:00 +28°C° 0 mm 3 m/s 759 mmHg 49%
    01:00 +27°C° 0 mm 3 m/s 759 mmHg 48%
    02:00 +27°C° 0 mm 3 m/s 759 mmHg 48%
    03:00 +27°C° 0 mm 2 m/s 759 mmHg 47%
    04:00 +27°C° 0 mm 2 m/s 759 mmHg 47%
    05:00 +28°C° 0 mm 2 m/s 760 mmHg 46%
    06:00 +29°C° 0 mm 2 m/s 760 mmHg 46%
    07:00 +29°C° 0 mm 2 m/s 760 mmHg 45%
    08:00 +31°C° 0 mm 2 m/s 760 mmHg 41%
    09:00 +33°C° 0 mm 1 m/s 760 mmHg 36%
    10:00 +35°C° 0 mm 1 m/s 760 mmHg 32%
    11:00 +36°C° 0 mm 2 m/s 760 mmHg 32%
    12:00 +36°C° 0 mm 2 m/s 760 mmHg 33%
    13:00 +36°C° 0 mm 3 m/s 759 mmHg 33%
    14:00 +35°C° 0 mm 3 m/s 759 mmHg 36%
    15:00 +34°C° 0 mm 2 m/s 759 mmHg 40%
    16:00 +34°C° 0 mm 2 m/s 759 mmHg 43%
    17:00 +32°C° 0 mm 2 m/s 759 mmHg 46%
    18:00 +31°C° 0 mm 3 m/s 759 mmHg 49%
    19:00 +30°C° 0 mm 3 m/s 759 mmHg 52%
    20:00 +29°C° 0 mm 3 m/s 759 mmHg 53%
    21:00 +28°C° 0 mm 2 m/s 759 mmHg 55%
    22:00 +28°C° 0 mm 2 m/s 760 mmHg 57%
    23:00 +27°C° 0 mm 2 m/s 759 mmHg 56%
    Arată mai mult